[[{"header":{"parameterUnit":"m.s-1","parameterCategory":1,"la1":30.2991,"la2":30.254,"lo1":-89.0895,"lo2":-89.0444,"dy":0.0017,"dx":0.0017,"nx":28,"ny":28,"refTime":"2025-02-05T09:00:00:Z","depth":0,"parameterNumber":2,"parameterNumberName":"U-component_of_WINDS"},"data":[0,0,0,0,0,0,0,0,0,0,0,0,0,0,0,0,0,0,0,0,0,0,0,0,0,0,0,0,0,0,0,0,0,0,0,0,0,0,0,0,0,0,0,0,0,0,0,0,0,0,0,0,0,0,0,0,0,0,-0.3347,-0.3346,0,-0.3304,-0.3304,-0.3303,-0.33,-0.33,-0.3301,-0.3301,-0.3256,-0.3254,-0.3253,0,0,0,0,0,0,0,0,0,0,0,0,0,-0.3424,-0.3423,-0.3347,-0.3346,-0.3346,-0.3304,-0.3304,-0.3303,-0.33,-0.33,-0.3301,-0.3301,-0.3256,-0.3255,-0.3253,0,0,0,0,0,0,0,0,0,0,0,0,0,-0.3387,-0.3422,-0.3347,-0.3339,-0.3338,-0.3304,-0.3304,-0.3303,-0.3299,-0.33,-0.3301,-0.3302,-0.3257,-0.3255,-0.3252,-0.3223,0,0,-0.3245,-0.3244,0,0,0,0,0,0,0,0,-0.3389,-0.3384,-0.3341,-0.334,-0.3338,-0.3308,-0.3314,-0.3276,-0.3299,-0.3314,-0.3301,-0.3302,-0.3273,-0.3269,-0.3259,-0.3221,-0.3219,-0.3245,-0.3243,-0.3242,-0.3241,0,0,0,0,0,0,0,-0.3392,-0.3386,-0.333,-0.334,-0.3339,-0.3337,-0.3333,-0.3307,-0.329,-0.3313,-0.3312,-0.3308,-0.3272,-0.3262,-0.3258,-0.3218,-0.3245,-0.3242,-0.3241,-0.324,-0.3152,-0.3151,0,0,0,0,0,0,-0.3396,-0.3388,-0.3331,-0.3329,-0.3366,-0.3335,-0.333,-0.3317,-0.329,-0.3287,-0.3307,-0.3308,-0.3265,-0.3261,-0.3257,-0.3219,-0.3242,-0.324,-0.3238,-0.3153,-0.3152,-0.3151,0,0,0,0,0,0,-0.3397,-0.3391,-0.3333,-0.3358,-0.3351,-0.3333,-0.3318,-0.3316,-0.3305,-0.3286,-0.3282,-0.33,-0.3266,-0.326,-0.3231,-0.3218,-0.3239,-0.3236,-0.3154,-0.3153,-0.3152,-0.3145,0,0,0,0,0,0,-0.34,-0.3391,-0.3381,-0.3358,-0.3349,-0.3309,-0.3318,-0.3314,-0.3301,-0.3302,-0.3278,-0.3275,-0.3266,-0.3235,-0.3229,-0.3215,-0.3234,-0.3155,-0.3153,-0.3152,-0.3147,-0.3144,-0.3142,0,0,0,0,0,-0.3402,-0.3381,-0.338,-0.3373,-0.3336,-0.3308,-0.3303,-0.3294,-0.33,-0.3289,-0.3276,-0.3275,-0.3221,-0.3232,-0.3225,-0.321,-0.3156,-0.3154,-0.3152,-0.3148,-0.3145,-0.3142,0,0,0,0,0,0,-0.3402,-0.3378,-0.3377,-0.3347,-0.333,-0.3308,-0.3293,-0.3291,-0.3271,-0.3272,-0.3261,-0.3256,-0.3227,-0.3216,-0.3229,-0.318,-0.3189,-0.3185,-0.3188,-0.3185,-0.3182,-0.3185,-0.3232,0,0,0,0,0,-0.3399,-0.3379,-0.3358,-0.3334,-0.3325,-0.3311,-0.3298,-0.3293,-0.3274,-0.3267,-0.3252,-0.3233,-0.3212,-0.3198,-0.3177,-0.3145,-0.3139,-0.3132,-0.3129,-0.3127,-0.3124,-0.3105,-0.3101,-0.3145,-0.3145,-0.3145,0,0,-0.3391,-0.3375,-0.3363,-0.3333,-0.3319,-0.3298,-0.3304,-0.3282,-0.3266,-0.3263,-0.3235,-0.3223,-0.3202,-0.3171,-0.3157,-0.3161,-0.3111,-0.3125,-0.3123,-0.3121,-0.3103,-0.3098,-0.3095,-0.3143,-0.3144,-0.3144,0,0,-0.3366,-0.3353,-0.333,-0.3316,-0.3294,-0.3285,-0.3279,-0.3257,-0.3249,-0.3221,-0.3218,-0.3198,-0.3162,-0.3146,-0.3134,-0.3102,-0.31,-0.3096,-0.3082,-0.3064,-0.3061,-0.3057,-0.3045,-0.3041,-0.3093,-0.3093,-0.3093,0,-0.3359,-0.3328,-0.3319,-0.3296,-0.3283,-0.3279,-0.3256,-0.3242,-0.3215,-0.3205,-0.3211,-0.3164,-0.3149,-0.3114,-0.3106,-0.3097,-0.3089,-0.3098,-0.3062,-0.3059,-0.3056,-0.3043,-0.3039,-0.3092,-0.3092,-0.3092,-0.3092,0,-0.332,-0.3298,-0.3282,-0.3256,-0.3241,-0.3218,-0.3205,-0.319,-0.3186,-0.3175,-0.3145,-0.3128,-0.3103,-0.3094,-0.309,-0.3058,-0.3061,-0.3064,-0.3073,-0.3051,-0.3039,-0.3035,-0.3091,-0.3092,-0.3092,-0.3092,0,0,-0.3293,-0.3262,-0.3256,-0.3243,-0.3219,-0.3202,-0.3178,-0.3154,-0.3141,-0.3122,-0.3102,-0.3071,-0.3073,-0.3059,-0.3052,-0.3036,-0.3011,-0.3041,-0.304,-0.3035,-0.2973,-0.297,-0.2965,-0.301,-0.3009,-0.3008,-0.2974,0,-0.3265,-0.3223,-0.3214,-0.3178,-0.3157,-0.3153,-0.3132,-0.3115,-0.3104,-0.3084,-0.3072,-0.305,-0.3055,-0.3046,-0.3031,-0.3017,-0.2998,-0.302,-0.2989,-0.2988,-0.2993,-0.2959,-0.2956,-0.2924,-0.297,-0.2969,-0.2968,0,-0.3226,-0.3206,-0.3167,-0.3145,-0.3135,-0.3117,-0.3093,-0.3075,-0.3054,-0.3048,-0.3031,-0.3027,-0.3001,-0.3012,-0.2976,-0.2991,-0.2978,-0.297,-0.2968,-0.2964,-0.2976,-0.2952,-0.2914,-0.2909,-0.2961,-0.2962,-0.2962,0,-0.3208,-0.3172,-0.3144,-0.3133,-0.3107,-0.3094,-0.3082,-0.3062,-0.3048,-0.3027,-0.3017,-0.2994,-0.2981,-0.2962,-0.2951,-0.296,-0.2915,-0.2926,-0.2908,-0.2908,-0.2898,-0.2899,-0.2856,-0.2892,-0.2892,-0.2892,-0.2892,0,-0.3177,-0.3153,-0.3136,-0.3118,-0.3091,-0.3081,-0.3054,-0.3042,-0.3025,-0.3004,-0.3,-0.2981,-0.2968,-0.2946,-0.2938,-0.2908,-0.2903,-0.2896,-0.2893,-0.2895,-0.2896,-0.2886,-0.2887,-0.2891,-0.2891,-0.2891,-0.2892,0,-0.3153,-0.314,-0.3109,-0.3086,-0.308,-0.3061,-0.3041,-0.3023,-0.3012,-0.2987,-0.298,-0.2963,-0.2938,-0.2925,-0.2893,-0.2887,-0.2854,-0.2854,-0.2861,-0.2859,-0.2842,-0.2843,-0.279,-0.2782,-0.2825,-0.2824,-0.2824,0,-0.3133,-0.3114,-0.3089,-0.3075,-0.3063,-0.3041,-0.3026,-0.3015,-0.2999,-0.2974,-0.2959,-0.2934,-0.2913,-0.2872,-0.2857,-0.2832,-0.283,-0.2814,-0.2827,-0.2829,-0.2828,-0.2829,-0.2826,-0.2811,-0.281,-0.281,-0.281,0,-0.3098,-0.3093,-0.3071,-0.3047,-0.303,-0.301,-0.2991,-0.298,-0.2966,-0.2948,-0.2922,-0.2906,-0.2874,-0.2848,-0.2822,-0.2809,-0.2807,-0.2806,-0.28,-0.2801,-0.2806,-0.2802,-0.2853,-0.2807,-0.2807,-0.2807,-0.2808,-0.2808,-0.3075,-0.3057,-0.3037,-0.3013,-0.2997,-0.2979,-0.2961,-0.2948,-0.2926,-0.2899,-0.2894,-0.2866,-0.2845,-0.281,-0.2796,-0.2774,-0.2777,-0.277,-0.2767,-0.2765,-0.2764,-0.281,-0.2769,-0.2769,-0.2769,-0.2769,-0.2769,0,-0.3039,-0.3025,-0.3003,-0.2976,-0.2957,-0.2956,-0.2935,-0.2919,-0.2894,-0.2875,-0.2854,-0.2824,-0.2799,-0.2781,-0.2755,-0.274,-0.2738,-0.2734,-0.2734,-0.2731,-0.2763,-0.2769,-0.2736,-0.2736,-0.2736,-0.2736,-0.2736,-0.2736,-0.3017,-0.2988,-0.298,-0.2942,-0.2928,-0.2901,-0.2888,-0.2871,-0.2856,-0.2822,-0.2801,-0.279,-0.2771,-0.2743,-0.272,-0.2715,-0.2705,-0.27,-0.2695,-0.2725,-0.2729,-0.2732,-0.2738,-0.2699,-0.2699,-0.2665,-0.2665,-0.2665]},{"header":{"parameterUnit":"m.s-1","parameterCategory":1,"la1":30.2991,"la2":30.254,"lo1":-89.0895,"lo2":-89.0444,"dy":0.0017,"dx":0.0017,"nx":28,"ny":28,"refTime":"2025-02-05T09:00:00:Z","depth":0,"parameterNumber":3,"parameterNumberName":"V-component_of_WINDS"},"data":[0,0,0,0,0,0,0,0,0,0,0,0,0,0,0,0,0,0,0,0,0,0,0,0,0,0,0,0,0,0,0,0,0,0,0,0,0,0,0,0,0,0,0,0,0,0,0,0,0,0,0,0,0,0,0,0,0,0,2.2987,2.2987,0,2.3057,2.3058,2.3059,2.3053,2.3052,2.3051,2.305,2.3123,2.3126,2.3129,0,0,0,0,0,0,0,0,0,0,0,0,0,2.2847,2.285,2.2986,2.2987,2.2988,2.3057,2.3058,2.3059,2.3053,2.3052,2.3051,2.305,2.3122,2.3126,2.3129,0,0,0,0,0,0,0,0,0,0,0,0,0,2.2912,2.2851,2.2986,2.2994,2.2995,2.3057,2.3058,2.3059,2.3054,2.3052,2.3051,2.3049,2.3121,2.3126,2.313,2.3189,0,0,2.3143,2.3145,0,0,0,0,0,0,0,0,2.2908,2.2917,2.2992,2.2993,2.2995,2.3045,2.3036,2.3103,2.3054,2.3031,2.305,2.3048,2.3099,2.3105,2.3122,2.3192,2.3196,2.3144,2.3146,2.3148,2.315,0,0,0,0,0,0,0,2.2904,2.2914,2.3014,2.2993,2.2995,2.2994,2.3001,2.3048,2.3073,2.3033,2.3033,2.3041,2.3099,2.3117,2.3123,2.3197,2.3144,2.3148,2.315,2.3152,2.332,2.3322,0,0,0,0,0,0,2.2898,2.291,2.3012,2.3017,2.2947,2.2998,2.3006,2.303,2.3073,2.3077,2.3043,2.3041,2.3111,2.3118,2.3126,2.3199,2.3148,2.3152,2.3155,2.3319,2.3321,2.3323,0,0,0,0,0,0,2.2895,2.2907,2.3009,2.2963,2.2976,2.3002,2.3029,2.3033,2.3051,2.308,2.3084,2.3057,2.311,2.312,2.3173,2.3201,2.3154,2.3158,2.3316,2.3319,2.3322,2.3344,0,0,0,0,0,0,2.2891,2.2906,2.2928,2.2964,2.2979,2.3056,2.3031,2.3035,2.3058,2.3057,2.3094,2.3099,2.3109,2.3167,2.3178,2.3206,2.3162,2.3314,2.3318,2.3321,2.3341,2.3348,2.3353,0,0,0,0,0,2.2886,2.2932,2.2929,2.2942,2.3008,2.3057,2.3066,2.3077,2.3061,2.3084,2.3102,2.3098,2.3196,2.3172,2.3185,2.3215,2.3312,2.3317,2.3321,2.3339,2.3346,2.3353,0,0,0,0,0,0,2.2899,2.2937,2.2934,2.2994,2.3022,2.3056,2.3086,2.3084,2.3118,2.3116,2.3127,2.3136,2.319,2.3208,2.3181,2.3275,2.3252,2.3259,2.3262,2.3269,2.3275,2.327,2.3166,0,0,0,0,0,2.2909,2.2946,2.2977,2.3026,2.304,2.3061,2.3083,2.3088,2.3119,2.3131,2.3154,2.3183,2.3221,2.3246,2.3282,2.3343,2.3352,2.337,2.3376,2.338,2.3387,2.3421,2.343,2.3336,2.3336,2.3336,0,0,2.293,2.2955,2.2978,2.3029,2.3052,2.3091,2.3071,2.3112,2.3141,2.3137,2.319,2.3207,2.3242,2.33,2.3326,2.3316,2.3414,2.3386,2.3389,2.3393,2.3426,2.3435,2.3443,2.3339,2.3339,2.3338,0,0,2.2988,2.301,2.3054,2.3077,2.3112,2.3125,2.3135,2.317,2.3181,2.3234,2.3232,2.3266,2.3331,2.3355,2.3376,2.3443,2.344,2.3454,2.3485,2.3519,2.3526,2.3533,2.3558,2.3566,2.346,2.346,2.346,0,2.3009,2.3067,2.3076,2.3119,2.3142,2.3139,2.3184,2.3206,2.3251,2.3267,2.3255,2.3336,2.3358,2.3423,2.3439,2.3455,2.3468,2.3451,2.3524,2.3531,2.3537,2.3561,2.357,2.3462,2.3462,2.3461,2.3461,0,2.3093,2.3133,2.3164,2.3207,2.3234,2.3277,2.3293,2.3318,2.3322,2.3336,2.339,2.3417,2.3459,2.3474,2.3478,2.3539,2.3532,2.3521,2.3499,2.3548,2.357,2.3579,2.3464,2.3463,2.3463,2.3463,0,0,2.3162,2.321,2.3221,2.3241,2.3279,2.3311,2.3353,2.3394,2.3416,2.3447,2.3484,2.3538,2.3529,2.3553,2.3559,2.3588,2.364,2.3574,2.3575,2.3587,2.3711,2.3719,2.373,2.3638,2.364,2.3641,2.3708,0,2.3225,2.3301,2.3311,2.3379,2.3416,2.3414,2.3451,2.3479,2.3493,2.3528,2.3543,2.3582,2.3566,2.3581,2.361,2.3628,2.3666,2.3623,2.3674,2.3675,2.3667,2.3741,2.3751,2.3813,2.3717,2.3719,2.372,0,2.3309,2.3342,2.3414,2.3447,2.3463,2.3496,2.3535,2.3567,2.3598,2.3606,2.3633,2.3635,2.368,2.3655,2.3717,2.3688,2.3709,2.3721,2.3723,2.373,2.3701,2.3751,2.3833,2.3842,2.3734,2.3732,2.3731,0,2.3354,2.3417,2.3468,2.3484,2.3524,2.3548,2.3565,2.3595,2.3619,2.3652,2.3668,2.3706,2.3727,2.3756,2.3769,2.3749,2.3831,2.3807,2.384,2.384,2.3859,2.3858,2.3946,2.387,2.387,2.3869,2.3869,0,2.3424,2.3469,2.3489,2.352,2.357,2.358,2.3629,2.3645,2.3671,2.3706,2.3706,2.3739,2.3753,2.3788,2.3798,2.3849,2.3858,2.3867,2.3869,2.3868,2.3867,2.3883,2.388,2.3872,2.3871,2.3871,2.387,0,2.3484,2.3499,2.3555,2.3587,2.3597,2.3632,2.366,2.369,2.3704,2.3748,2.3759,2.3781,2.3822,2.3837,2.3888,2.3894,2.3954,2.3952,2.3943,2.3944,2.3977,2.3975,2.408,2.4095,2.4008,2.4008,2.4009,0,2.3529,2.3563,2.3599,2.3622,2.364,2.3678,2.3702,2.3713,2.3739,2.3776,2.3803,2.3844,2.3877,2.3944,2.3964,2.4003,2.4003,2.4037,2.4009,2.4006,2.4005,2.4003,2.4007,2.4043,2.4044,2.4045,2.4045,0,2.3607,2.3612,2.3647,2.3685,2.3714,2.3744,2.3773,2.3793,2.3808,2.3836,2.3879,2.3905,2.3956,2.3997,2.4036,2.4055,2.4053,2.4054,2.4064,2.4063,2.4058,2.4062,2.3959,2.4052,2.4051,2.405,2.405,2.405,2.3662,2.3692,2.3722,2.3761,2.3784,2.3811,2.3842,2.3859,2.3894,2.3937,2.3941,2.3986,2.4017,2.4069,2.4089,2.4125,2.4116,2.413,2.4134,2.4138,2.4141,2.405,2.4132,2.4132,2.4132,2.4132,2.4132,0,2.3741,2.376,2.3795,2.3836,2.3867,2.3861,2.3893,2.392,2.396,2.3988,2.4021,2.4069,2.4109,2.4132,2.4172,2.4196,2.4197,2.4207,2.4206,2.421,2.4147,2.4135,2.4206,2.4206,2.4206,2.4206,2.4206,2.4206,2.3786,2.3837,2.3846,2.3908,2.3927,2.3972,2.3991,2.4016,2.4038,2.4093,2.4126,2.414,2.4166,2.4208,2.4244,2.425,2.4265,2.4277,2.4282,2.4222,2.4215,2.4207,2.4196,2.4279,2.4279,2.4343,2.4343,2.4344]}]]